Regional Weather Roundup
Issued by NWS Upton, NY

Home | Current Version | Previous Version | Text Only | Print | Product List | Glossary On
Versions: 1 2 3 4 5 6 7 8 9 10 11 12 13 14 15 16 17 18 19 20 21 22 23 24 25 26 27 28 29 30 31 32 33 34 35 36 37 38 39 40 41 42 43 44 45 46
000
ASUS41 KOKX 070005
RWROKX

REGIONAL WEATHER ROUNDUP
NATIONAL WEATHER SERVICE NEW YORK NY
700 PM EST FRI MAR 06 2015

NOTE: "FAIR" INDICATES FEW OR NO CLOUDS BELOW 12,000 FEET WITH NO
SIGNIFICANT WEATHER AND/OR OBSTRUCTIONS TO VISIBILITY.

NYZ071-072-176-178-NJZ106-104-070100-
NEW YORK CITY METRO AREA


CITY           SKY/WX    TMP DP  RH WIND       PRES   REMARKS
CENTRAL PARK   CLEAR     24   6  46 W12G17    30.42S WCI  13
LAGUARDIA APRT MOCLDY    25   7  46 S12       30.41F WCI  14
KENNEDY INTL   MOCLDY    22   6  50 SW9       30.43F WCI  12
NEWARK/LIBERTY MOCLDY    23   6  48 SW13      30.42S WCI  11
BRNX BOT. GARD   N/A    N/A N/A N/A S5        30.41F
TETERBORO      CLEAR     24   7  48 S7G17     30.40S WCI  16
$$

NYZ177-179-078>081-070100-
LONG ISLAND NEW YORK

CITY           SKY/WX    TMP DP  RH WIND       PRES   REMARKS
FARMINGDALE    CLEAR     21   9  59 S7        30.42F WCI  12
ISLIP          PTCLDY    20   8  60 SW7       30.40F WCI  11
SHIRLEY        CLEAR     18   6  59 SW3       30.43F
WESTHAMPTON    CLEAR      8  -2  63 CALM      30.43F
MONTAUK POINT    N/A     20   9  62 S5        30.43S WCI  13
$$

NYZ052-065-067-070100-
HUDSON VALLEY

CITY           SKY/WX    TMP DP  RH WIND       PRES   REMARKS
WHITE PLAINS   PTCLDY    20   5  52 S6        30.36F WCI  12
NEWBURGH       PTCLDY    23   0  36 CALM      30.35F
MONTGOMERY     MOCLDY    22   3  44 SW7       30.34S WCI  13
POUGHKEEPSIE   MOCLDY    25  -2  31 S5        30.36F WCI  19
ALBANY         MOCLDY    22   0  38 S5        30.34F WCI  16
$$

NJZ001-105-106-008-010-013-015-019>022-104-070100-
NEW JERSEY

CITY           SKY/WX    TMP DP  RH WIND       PRES   REMARKS
NEWARK/LIBERTY MOCLDY    23   6  48 SW13      30.42S WCI  11
TETERBORO      CLEAR     24   7  48 S7G17     30.40S WCI  16
CALDWELL       PTCLDY    23   3  42 SW6       30.40S WCI  16
MORRISTOWN     CLEAR     23   7  50 SW7       30.42S WCI  15
SOMERVILLE     MOCLDY    18   9  68 S3        30.40S
SUSSEX         MOCLDY    22   4  46 SW6       30.36S WCI  14
ANDOVER          N/A     19   4  51 SW3       30.36S
TRENTON        PTCLDY    21   4  47 SW5       30.42S WCI  15
MILLVILLE      CLEAR     13  32 100 W5        30.45S WCI   5
ATLANTIC CITY  CLEAR     19  13  77 CALM      30.45S
WRIGHTSTOWN    PTCLDY    17  13  83 S3        30.41S
TOMS RIVER     CLEAR     18  14  86 CALM      30.45S
BELMAR         CLEAR     19   9  63 S3        30.43S
$$

PAZ047>061-062-071-070100-
EASTERN PENNSYLVANIA

CITY           SKY/WX    TMP DP  RH WIND       PRES   REMARKS
PHILADELPHIA   MOCLDY    23  10  57 S8        30.46R WCI  14
ALLENTOWN      MOCLDY    17   4  56 SW6       30.39F WCI   9
SCRANTON       MOCLDY    21  -3  35 SW6       30.31F WCI  13
$$

CTZ002-004>006-009-010-012-RIZ004-006-007-MAZ004-011-015-070100-
SOUTHERN NEW ENGLAND
 IN CT

CITY           SKY/WX    TMP DP  RH WIND       PRES   REMARKS
BRADLEY INTL   MOCLDY    25   3  38 S10       30.35S WCI  15
HARTFORD       CLEAR     22   6  50 S7        30.39S WCI  13
DANBURY        PTCLDY    17   2  51 CALM      30.36F
WTRBRY/OXFORD  NOT AVBL
BRIDGEPORT     FAIR      23   7  50 SW10      30.41F WCI  12
MERIDEN        CLEAR     20   7  57 S6        30.39F WCI  12
NEW HAVEN      CLEAR     23   6  48 SW8       30.40F WCI  14
CHESTER        FAIR      19   9  63 SW3       30.39R
GROTON         CLEAR     19   4  51 S13       30.41S WCI   6
WILLIMANTIC    CLEAR     21   4  47 S6        30.38S WCI  13

 IN RI

CITY           SKY/WX    TMP DP  RH WIND       PRES   REMARKS
PROVIDENCE     CLEAR     17   6  62 S9        30.41R WCI   6
BLOCK ISLAND   CLEAR     19   7  58 S9        30.39F WCI   9
WESTERLY       CLEAR     16   5  62 CALM      30.42S

 IN MA

CITY           SKY/WX    TMP DP  RH WIND       PRES   REMARKS
BOSTON         PTCLDY    22   4  46 S13       30.38  WCI  10
WORCESTER      CLEAR     19  -8  30 SW7       30.29S WCI  10
WESTFIELD      CLEAR     22  -1  36 S3        30.34S
PROVINCETOWN   CLEAR     21  10  63 S9        30.40F WCI  11
NANTUCKET      CLEAR     16   9  74 NW3       30.41S
$$

ANZ330-335-338-340-345-350-353-355-070100-
COASTAL MARINE OBSERVATIONS


STATION/POSITION TIME  SKY/WX   TEMP    WIND        PRES    VSBY  WAVE
                                AIR SEA DIR/SP/G                  HT/PER
                 (UTC)          (F)     (DEG/KT/KT) (MB)    (MI)  (FT/S)
NY HARB ENTRANCE 0000            24 38  190/  6/  8 1030.4          2/ 9
4S FIRE IS       NOT AVBL
20S FIRE ISLAND  2300               36              1031.6          2/ 6
23SW MTP         0000                                 N/A           2/ 7
HUDSON CANYON    NOT AVBL
EXECUTION ROCKS  NOT AVBL
WESTERN LI SOUND NOT AVBL
CENTRAL LI SOUND NOT AVBL
EASTERN LI SOUND NOT AVBL
ROBBINS REEF     0000            24     210/  9/ 11 1028.9
$$


>>>>>>>>>>>>>>>>>>>>>>>>>>>> KEY <<<<<<<<<<<<<<<<<<<<<<<<<<<
>                                                          <
>     SKY/WX - SKY CONDITION/PRESENT WEATHER               <
>     TMP    - TEMPERATURE IN FAHRENHEIT                   <
>     DP     - DEWPOINT IN FAHRENHEIT                      <
>     RH     - RELATIVE HUMIDITY IN PERCENT                <
>     WIND   - DIRECTION AND SPEED IN MPH                  <
>     PRES   - MEAN SEA LEVEL PRESSURE IN INCHES OF HG     <
>     WCI    - WIND CHILL INDEX                            <
>     VSB    - VISIBILITY IN MILES                         <
>     HX     - HEAT INDEX                                  <
>     TC     - TEMPERATURE IN CELSIUS                      <
>     VRB    - VARIABLE WIND DIRECTION                     <
>                                                          <
>>>>>>>>>>>>>>>>>>>>>>>>>>>> KEY <<<<<<<<<<<<<<<<<<<<<<<<<<<





USA.gov is the U.S. government's official web portal to all federal, state and local government web resources and services.